Overview Statistics Trail Chart Weather Telemetry Raw packets
 

This is the latest recevied weather packets stored in our database for station/object KI5RAB. If no packets are shown the sender has not sent any weather packets the latest 10 day(s).

<< 26 27 28 29 30 31 32 >>
Time Temp. Humidity Pressure Rain* Wind** Luminosity Snow
1788483794 31.67° C 58% 1013.9 hPa 0 mm - 1 W/m² -
1788483489 32.22° C 57% 1013.9 hPa 0 mm - 2 W/m² -
1788483185 32.78° C 57% 1013.8 hPa 0 mm - 4 W/m² -
1788482880 32.78° C 55% 1013.8 hPa 0 mm - 6 W/m² -
1788482576 33.33° C 54% 1013.5 hPa 0 mm - 9 W/m² -
1788482276 33.89° C 53% 1013.6 hPa 0 mm - 13 W/m² -
1788481972 33.89° C 51% 1013.3 hPa 0 mm - 17 W/m² -
1788481667 33.89° C 51% 1013.4 hPa 0 mm - 21 W/m² -
1788481364 33.89° C 50% 1013.5 hPa 0 mm - 24 W/m² -
1788481057 34.44° C 49% 1013.2 hPa 0 mm - 28 W/m² -
1788480753 34.44° C 49% 1013.1 hPa 0 mm - 31 W/m² -
1788480448 35° C 49% 1013.1 hPa 0 mm - 37 W/m² -
1788480142 35° C 48% 1013.3 hPa 0 mm - 39 W/m² -
1788479842 35° C 48% 1013.1 hPa 0 mm - 45 W/m² -
1788479538 35.56° C 47% 1013.1 hPa 0 mm - 54 W/m² -
1788479231 35.56° C 46% 1013 hPa 0 mm - 75 W/m² -
1788478928 35.56° C 46% 1012.9 hPa 0 mm - 88 W/m² -
1788478624 36.11° C 46% 1013 hPa 0 mm - 88 W/m² -
1788478320 36.11° C 45% 1012.8 hPa 0 mm - 91 W/m² -
1788478014 36.11° C 46% 1012.8 hPa 0 mm - 97 W/m² -
1788477710 36.67° C 44% 1012.6 hPa 0 mm - 117 W/m² -
1788477408 36.67° C 45% 1012.6 hPa 0 mm - 139 W/m² -
1788477103 36.67° C 44% 1012.8 hPa 0 mm - 135 W/m² -
1788476799 37.22° C 42% 1012.8 hPa 0 mm - 169 W/m² -
1788476498 37.22° C 41% 1012.6 hPa 0 mm - 171 W/m² -

* Rain latest hour (hover to see other rain measurements)
** Current wind speed in m/s (hover to see current wind gust speed)